[[{"header":{"parameterUnit":"m.s-1","parameterCategory":1,"la1":30.2991,"la2":30.254,"lo1":-89.0895,"lo2":-89.0444,"dy":0.0017,"dx":0.0017,"nx":28,"ny":28,"refTime":"2025-07-06T21:00:00:Z","depth":0,"parameterNumber":2,"parameterNumberName":"U-component_of_WINDS"},"data":[0,0,0,0,0,0,0,0,0,0,0,0,0,0,0,0,0,0,0,0,0,0,0,0,0,0,0,0,0,0,0,0,0,0,0,0,0,0,0,0,0,0,0,0,0,0,0,0,0,0,0,0,0,0,0,0,0,0,1.7815,1.7816,0,1.794,1.7942,1.7943,1.7945,1.7944,1.7942,1.7941,1.8073,1.8078,1.8083,0,0,0,0,0,0,0,0,0,0,0,0,0,1.7578,1.7582,1.7815,1.7816,1.7818,1.794,1.7942,1.7944,1.7946,1.7944,1.7942,1.794,1.8071,1.8077,1.8083,0,0,0,0,0,0,0,0,0,0,0,0,0,1.769,1.7584,1.7814,1.7833,1.7836,1.794,1.7942,1.7944,1.7946,1.7944,1.7941,1.7939,1.8069,1.8076,1.8084,1.8178,0,0,1.8107,1.811,0,0,0,0,0,0,0,0,1.7684,1.7699,1.7829,1.7832,1.7836,1.7925,1.7907,1.8023,1.7947,1.7904,1.794,1.7938,1.8026,1.8037,1.8066,1.8184,1.819,1.8107,1.8112,1.8115,1.8117,0,0,0,0,0,0,0,1.7676,1.7693,1.7864,1.7831,1.7835,1.7836,1.7849,1.7929,1.7977,1.7908,1.7908,1.7923,1.8027,1.8058,1.8069,1.8192,1.8107,1.8114,1.8119,1.8121,1.8392,1.8395,0,0,0,0,0,0,1.7664,1.7687,1.786,1.7868,1.7752,1.7842,1.7857,1.7899,1.7976,1.7986,1.7925,1.7923,1.8047,1.806,1.8073,1.8188,1.8115,1.8122,1.8127,1.839,1.8393,1.8396,0,0,0,0,0,0,1.7659,1.7679,1.7855,1.7778,1.78,1.7849,1.7895,1.7902,1.7933,1.7989,1.7998,1.7948,1.8045,1.8063,1.8151,1.8192,1.8126,1.8132,1.8387,1.8391,1.8394,1.8417,0,0,0,0,0,0,1.7652,1.7677,1.7713,1.7778,1.7804,1.7931,1.7898,1.7906,1.7946,1.7944,1.8013,1.8022,1.8045,1.814,1.8159,1.8201,1.8138,1.8383,1.8388,1.8393,1.8413,1.8422,1.8429,0,0,0,0,0,1.7643,1.7716,1.7715,1.7736,1.785,1.7933,1.7948,1.7972,1.7949,1.7986,1.8021,1.802,1.8185,1.8149,1.817,1.8216,1.8381,1.8387,1.8393,1.841,1.842,1.8429,0,0,0,0,0,0,1.7656,1.7725,1.7725,1.782,1.7871,1.7933,1.798,1.7982,1.8041,1.8037,1.8065,1.8081,1.8169,1.8201,1.816,1.831,1.828,1.8291,1.8286,1.8296,1.8304,1.8294,1.8145,0,0,0,0,0,1.767,1.7731,1.7788,1.7867,1.7892,1.7931,1.7969,1.7982,1.8036,1.8058,1.81,1.8153,1.8216,1.8258,1.832,1.8418,1.8432,1.8459,1.8467,1.8473,1.8482,1.8535,1.8547,1.8416,1.8416,1.8416,0,0,1.7699,1.7744,1.7781,1.787,1.7911,1.7974,1.795,1.8018,1.8065,1.8069,1.8154,1.8187,1.8248,1.8341,1.8384,1.8371,1.8521,1.8481,1.8485,1.8491,1.8543,1.8555,1.8566,1.842,1.8419,1.8418,0,0,1.7784,1.7825,1.7894,1.7935,1.7996,1.8022,1.8038,1.81,1.8122,1.8208,1.8211,1.8268,1.8377,1.842,1.8456,1.8556,1.8556,1.8575,1.8617,1.8668,1.8678,1.8688,1.8722,1.8735,1.8584,1.8584,1.8584,0,1.7814,1.7908,1.793,1.7997,1.8036,1.8041,1.8111,1.815,1.8229,1.8256,1.8239,1.8375,1.8417,1.8519,1.8543,1.8573,1.8592,1.8568,1.8675,1.8684,1.8693,1.8727,1.874,1.8586,1.8586,1.8585,1.8585,0,1.794,1.8005,1.8054,1.8128,1.8172,1.8241,1.8274,1.8316,1.8325,1.8353,1.844,1.8489,1.8561,1.8586,1.8597,1.869,1.8679,1.8669,1.8639,1.8707,1.8739,1.8752,1.8588,1.8588,1.8587,1.8587,0,0,1.8038,1.8122,1.8139,1.8172,1.8239,1.829,1.8359,1.8427,1.8462,1.8516,1.8574,1.8666,1.8655,1.8696,1.8712,1.8757,1.8831,1.874,1.8742,1.8755,1.8936,1.8943,1.8958,1.8831,1.8834,1.8836,1.893,0,1.813,1.8251,1.8272,1.8378,1.8438,1.8443,1.8502,1.855,1.8577,1.8633,1.8663,1.8727,1.8709,1.8733,1.8778,1.8812,1.8868,1.8806,1.8886,1.8889,1.887,1.8975,1.8983,1.907,1.8943,1.8945,1.8947,0,1.8254,1.8309,1.842,1.8478,1.8504,1.8557,1.862,1.8673,1.8727,1.8743,1.8788,1.8798,1.8869,1.8836,1.8934,1.8892,1.8926,1.8948,1.8951,1.896,1.8922,1.8986,1.9099,1.9111,1.8967,1.8965,1.8964,0,1.8313,1.8415,1.8495,1.8523,1.8592,1.8629,1.866,1.8711,1.875,1.8806,1.8832,1.8895,1.893,1.8979,1.9006,1.8979,1.9103,1.9072,1.9118,1.9118,1.9145,1.9143,1.9264,1.9167,1.9166,1.9166,1.9166,0,1.8414,1.8482,1.8522,1.8571,1.8647,1.8671,1.8745,1.8775,1.8821,1.8876,1.8884,1.8936,1.8968,1.9024,1.9045,1.9123,1.9139,1.9155,1.916,1.9154,1.9152,1.9177,1.9171,1.917,1.9169,1.9168,1.9168,0,1.8493,1.8523,1.861,1.8667,1.8683,1.8737,1.8786,1.8834,1.886,1.893,1.8947,1.8989,1.9056,1.9087,1.917,1.9184,1.9272,1.9273,1.9253,1.9255,1.93,1.9295,1.9442,1.9462,1.9351,1.9352,1.9353,0,1.8556,1.8608,1.867,1.8707,1.8738,1.8797,1.8836,1.8861,1.8902,1.8966,1.9006,1.9073,1.9127,1.9233,1.9271,1.9334,1.9337,1.9383,1.9346,1.9338,1.9337,1.9333,1.9338,1.939,1.9391,1.9392,1.9393,0,1.8662,1.8674,1.873,1.8791,1.8837,1.8886,1.8935,1.8964,1.8997,1.9042,1.9109,1.9151,1.9235,1.93,1.9365,1.9398,1.9401,1.9404,1.9418,1.9413,1.9399,1.9407,1.9271,1.9401,1.94,1.9399,1.9399,1.9399,1.8735,1.8781,1.8831,1.8893,1.8931,1.8976,1.9023,1.9054,1.911,1.9179,1.9191,1.9262,1.9314,1.9401,1.9436,1.9492,1.9481,1.9502,1.9507,1.9511,1.9513,1.939,1.9504,1.9504,1.9504,1.9503,1.9503,0,1.8842,1.8874,1.893,1.8997,1.9045,1.9042,1.9095,1.9136,1.9198,1.9245,1.9298,1.9374,1.9438,1.948,1.9544,1.9581,1.9584,1.9597,1.9595,1.9602,1.952,1.9501,1.9593,1.9593,1.9593,1.9593,1.9593,1.9593,1.8903,1.898,1.8997,1.9093,1.9125,1.9194,1.9224,1.9266,1.9303,1.9388,1.944,1.9466,1.9512,1.9579,1.9636,1.9647,1.967,1.9684,1.9694,1.9617,1.9608,1.9599,1.9581,1.9689,1.9689,1.9771,1.9772,1.9773]},{"header":{"parameterUnit":"m.s-1","parameterCategory":1,"la1":30.2991,"la2":30.254,"lo1":-89.0895,"lo2":-89.0444,"dy":0.0017,"dx":0.0017,"nx":28,"ny":28,"refTime":"2025-07-06T21:00:00:Z","depth":0,"parameterNumber":3,"parameterNumberName":"V-component_of_WINDS"},"data":[0,0,0,0,0,0,0,0,0,0,0,0,0,0,0,0,0,0,0,0,0,0,0,0,0,0,0,0,0,0,0,0,0,0,0,0,0,0,0,0,0,0,0,0,0,0,0,0,0,0,0,0,0,0,0,0,0,0,5.4026,5.4026,0,5.4034,5.4034,5.4034,5.3979,5.3977,5.3976,5.3974,5.3981,5.3982,5.3984,0,0,0,0,0,0,0,0,0,0,0,0,0,5.3963,5.3964,5.4026,5.4026,5.4026,5.4034,5.4034,5.4034,5.3979,5.3977,5.3975,5.3974,5.398,5.3982,5.3984,0,0,0,0,0,0,0,0,0,0,0,0,0,5.3982,5.3965,5.4026,5.4,5.3998,5.4034,5.4034,5.4034,5.398,5.3977,5.3975,5.3973,5.3979,5.3982,5.3984,5.4045,0,0,5.3991,5.3992,0,0,0,0,0,0,0,0,5.3981,5.3985,5.4004,5.4002,5.3999,5.4003,5.4014,5.4038,5.398,5.3986,5.3974,5.3972,5.399,5.3991,5.3998,5.4045,5.4046,5.3992,5.3993,5.3994,5.3995,0,0,0,0,0,0,0,5.398,5.3984,5.4029,5.4004,5.4001,5.3987,5.3988,5.4018,5.4001,5.3986,5.3982,5.3983,5.3988,5.3995,5.3997,5.4046,5.3992,5.3994,5.3995,5.3996,5.4144,5.4146,0,0,0,0,0,0,5.3983,5.3983,5.4029,5.4029,5.3985,5.399,5.3991,5.4004,5.4,5.3998,5.3985,5.3981,5.3992,5.3995,5.3997,5.4068,5.3994,5.3996,5.3998,5.4141,5.4144,5.4147,0,0,0,0,0,0,5.3981,5.3987,5.4029,5.4005,5.401,5.3994,5.401,5.4006,5.4013,5.4,5.3997,5.3996,5.3991,5.3994,5.4034,5.4067,5.3997,5.4,5.4138,5.4142,5.4146,5.421,0,0,0,0,0,0,5.398,5.3987,5.401,5.4006,5.4011,5.4065,5.4012,5.4007,5.4017,5.4011,5.4009,5.4007,5.3989,5.403,5.4036,5.407,5.4002,5.4135,5.414,5.4144,5.4205,5.4216,5.4225,0,0,0,0,0,5.3978,5.4028,5.4012,5.4018,5.404,5.4067,5.407,5.4049,5.402,5.4043,5.4035,5.4007,5.4063,5.4035,5.4041,5.4076,5.4133,5.4139,5.4144,5.4201,5.4214,5.4225,0,0,0,0,0,0,5.4036,5.4027,5.4009,5.406,5.4065,5.4058,5.4086,5.4064,5.4077,5.4071,5.4044,5.4044,5.4088,5.4086,5.4054,5.4134,5.4093,5.41,5.4134,5.4146,5.4156,5.4155,5.4004,0,0,0,0,0,5.4055,5.4078,5.4069,5.4115,5.4118,5.4102,5.4113,5.4097,5.4101,5.4103,5.4098,5.4102,5.4121,5.4134,5.415,5.4205,5.4203,5.4232,5.4242,5.425,5.4256,5.4284,5.4296,5.4165,5.4165,5.4165,0,0,5.4094,5.4092,5.4108,5.4126,5.4128,5.4153,5.4104,5.4132,5.415,5.4107,5.4144,5.414,5.4144,5.4191,5.4212,5.4191,5.4292,5.4257,5.4264,5.4265,5.4291,5.4304,5.4315,5.4169,5.4168,5.4168,0,0,5.4177,5.4178,5.4216,5.4219,5.4223,5.4212,5.4221,5.4218,5.4215,5.4252,5.422,5.424,5.4273,5.4277,5.4283,5.4368,5.4342,5.4374,5.4426,5.4454,5.4464,5.4473,5.4502,5.4513,5.4381,5.4381,5.4381,0,5.4224,5.426,5.4238,5.4268,5.4277,5.424,5.4278,5.4282,5.4291,5.4297,5.4274,5.4314,5.4314,5.4362,5.4382,5.4389,5.4398,5.4374,5.4464,5.4473,5.4481,5.4509,5.452,5.4384,5.4384,5.4384,5.4383,0,5.4318,5.4343,5.4373,5.4384,5.4396,5.443,5.4412,5.4427,5.441,5.4402,5.444,5.4438,5.4453,5.4464,5.4447,5.4509,5.4496,5.4469,5.4426,5.4498,5.4523,5.4534,5.439,5.4389,5.4387,5.4386,0,0,5.4436,5.4435,5.4446,5.445,5.4452,5.4471,5.4503,5.4519,5.4532,5.454,5.4565,5.4594,5.4569,5.4577,5.456,5.4585,5.4651,5.4555,5.4554,5.4572,5.4719,5.4738,5.4751,5.4635,5.4637,5.4638,5.4718,0,5.4517,5.4572,5.4553,5.4609,5.4632,5.4597,5.4625,5.4629,5.4622,5.464,5.4632,5.4653,5.4619,5.4623,5.4646,5.4639,5.468,5.4633,5.4658,5.4659,5.4657,5.4764,5.4785,5.486,5.4728,5.473,5.4731,0,5.4617,5.463,5.4688,5.4686,5.4695,5.472,5.4733,5.4751,5.4755,5.4748,5.4756,5.4735,5.4765,5.4725,5.4766,5.4734,5.4743,5.4741,5.4744,5.4744,5.4698,5.4766,5.4883,5.4894,5.4747,5.4745,5.4744,0,5.4697,5.4728,5.4767,5.4771,5.477,5.4789,5.4789,5.4791,5.4801,5.4813,5.4819,5.4834,5.4841,5.4853,5.4836,5.4808,5.488,5.4837,5.4874,5.4875,5.489,5.4889,5.5009,5.4898,5.4898,5.4898,5.4898,0,5.4788,5.4824,5.4802,5.4826,5.4866,5.4844,5.4884,5.4881,5.4883,5.4904,5.4876,5.4897,5.4874,5.4892,5.4879,5.4915,5.4919,5.4914,5.491,5.4916,5.4917,5.4921,5.4914,5.4901,5.49,5.49,5.4899,0,5.4882,5.4869,5.4909,5.4905,5.4905,5.4935,5.4931,5.4952,5.4944,5.4972,5.4977,5.4964,5.4985,5.4969,5.4989,5.498,5.5028,5.5017,5.5027,5.5023,5.506,5.5057,5.5186,5.5201,5.5082,5.5084,5.5085,0,5.4941,5.4968,5.4967,5.498,5.4983,5.5004,5.5014,5.4994,5.5007,5.5013,5.5034,5.5052,5.5066,5.5101,5.5092,5.5108,5.5096,5.5141,5.5098,5.5103,5.5095,5.5094,5.5096,5.5149,5.515,5.5151,5.5152,0,5.5045,5.5037,5.5054,5.5069,5.5083,5.5093,5.5101,5.5114,5.5093,5.5108,5.5129,5.514,5.5161,5.518,5.5192,5.5192,5.5169,5.5166,5.5175,5.5181,5.5185,5.5182,5.5049,5.5162,5.5161,5.5161,5.516,5.516,5.5122,5.5145,5.5148,5.5167,5.5172,5.518,5.52,5.5194,5.5212,5.5227,5.5215,5.524,5.5243,5.5258,5.526,5.5279,5.5261,5.5274,5.5278,5.5281,5.5286,5.5183,5.5282,5.5281,5.5281,5.5281,5.5281,0,5.5224,5.5224,5.5243,5.5255,5.5271,5.5249,5.5257,5.5271,5.5293,5.5299,5.5313,5.5337,5.5355,5.5348,5.5364,5.538,5.537,5.5385,5.5383,5.5383,5.5302,5.5292,5.5393,5.5393,5.5393,5.5393,5.5393,5.5393,5.5278,5.5315,5.5308,5.5347,5.5347,5.5371,5.5378,5.5385,5.5389,5.5418,5.5432,5.5428,5.5429,5.5444,5.546,5.5457,5.5464,5.5483,5.5476,5.54,5.5389,5.5378,5.5369,5.5484,5.5485,5.5556,5.5556,5.5557]}]]